DateTimeUTC,F1_A11,F1_S11,BsB_S11,BsG_S11,BsR_S11,BbsB_S11,BbsG_S11,BbsR_S11,BaB_A11,BaG_A11,BaR_A11,Tu_S11,T_S11,Uu_S11,U_S11,P_S11,T1_A11
2021-02-03T05:00:00Z,00000200,21000000,,,,,,,0000.02,-000.27,0000.15,15.7,23.1,,00.0,0630.4,30.9
2021-02-03T05:01:00Z,00000200,21000000,,,,,,,-000.03,-000.14,0000.15,15.7,23.1,,00.0,0630.4,30.8
2021-02-03T05:02:00Z,00000200,21000000,,,,,,,0000.12,0000.56,0000.03,15.6,23.1,,00.0,0630.4,30.8
2021-02-03T05:03:00Z,00000200,61000000,,,,,,,-000.11,-000.68,-000.33,15.6,23.1,,00.0,0630.5,30.9
2021-02-03T05:04:00Z,00000200,41000000,0000.13,-000.02,0000.09,0000.30,0000.14,0000.24,-000.19,0000.09,0000.12,15.9,22.9,,00.0,0631.6,30.9
2021-02-03T05:05:00Z,00000200,01000000,0000.28,-000.10,0000.21,-000.07,0000.08,-000.06,-000.26,-000.32,-000.53,16.0,22.8,,00.0,0631.7,30.9
2021-02-03T05:06:00Z,00000200,01000000,0000.45,0000.10,0000.05,0000.22,-000.01,0000.11,-000.53,-000.20,0000.36,16.1,22.9,,00.0,0631.8,30.9
2021-02-03T05:07:00Z,00000200,01000000,0000.07,0000.16,0000.11,0000.35,0000.01,0000.12,-000.08,0000.03,-000.33,16.1,22.9,,00.0,0631.8,30.9
2021-02-03T05:08:00Z,00000200,01000000,0000.01,0000.26,0000.03,0000.34,0000.10,0000.10,-000.26,-000.38,0000.10,16.2,22.9,,00.0,0631.8,30.9
2021-02-03T05:09:00Z,00000200,01000000,0000.19,0000.07,0000.14,0000.05,-000.07,-000.02,0000.00,0000.14,-000.44,16.2,22.9,,00.0,0631.9,30.9
2021-02-03T05:10:00Z,00000200,01000000,-000.10,-000.08,0000.09,0000.06,-000.16,-000.14,-000.38,-000.26,0000.41,16.3,22.9,,00.0,0631.9,30.9
2021-02-03T05:11:00Z,00000200,01000000,-000.00,0000.31,0000.26,0000.00,-000.16,-000.06,0000.18,0000.04,-000.25,16.3,22.9,,00.0,0631.9,30.9
2021-02-03T05:12:00Z,00000200,01000000,0000.31,0000.09,0000.27,0000.24,0000.03,0000.06,-000.16,-000.23,-000.06,16.3,22.9,,00.0,0631.9,30.9
2021-02-03T05:13:00Z,00000200,01000000,0000.05,0000.17,0000.23,0000.31,0000.04,0000.06,-000.04,-000.09,-000.31,16.3,22.9,,00.0,0631.9,30.9
2021-02-03T05:14:00Z,00000200,01000000,-000.36,0000.04,0000.22,0000.14,0000.15,-000.01,-000.08,-000.00,0000.01,16.2,22.9,,00.0,0632.0,30.9
2021-02-03T05:15:00Z,00000200,01000000,0000.12,0000.39,0000.08,0000.08,-000.03,-000.17,-000.53,-000.56,-000.58,16.1,22.9,,00.0,0631.9,30.9
2021-02-03T05:16:00Z,00000200,01000000,-000.34,0000.01,0000.13,-000.07,0000.18,0000.07,-000.49,-000.17,0000.51,16.0,22.8,,00.0,0631.9,30.8
2021-02-03T05:17:00Z,00000200,01000000,0000.37,-000.07,-000.07,-000.22,0000.16,-000.03,0000.39,-000.23,-000.15,16.1,22.8,,00.0,0631.9,30.8
2021-02-03T05:18:00Z,00000200,01000000,0000.41,-000.08,0000.05,0000.14,-000.06,0000.01,0000.01,0000.06,-000.33,16.1,22.8,,00.0,0631.8,30.8
2021-02-03T05:19:00Z,00000200,01000000,0000.48,0000.20,0000.01,0000.18,-000.14,0000.12,0000.11,0000.29,0000.62,16.1,22.8,,00.0,0631.8,30.9
2021-02-03T05:20:00Z,00000200,01000000,0000.26,0000.32,0000.09,-000.27,-000.01,0000.00,-000.00,0000.29,-000.10,16.2,22.9,,00.0,0631.8,30.9
2021-02-03T05:21:00Z,00000200,01000000,0000.67,0000.32,0000.46,-000.10,0000.06,0000.16,0000.46,0000.11,0000.08,16.2,22.9,,00.0,0631.8,30.9
2021-02-03T05:22:00Z,00000200,01000000,0000.05,0000.14,0000.21,-000.37,0000.15,-000.07,0000.06,-000.04,0000.11,16.2,22.9,,00.0,0631.8,30.9
2021-02-03T05:23:00Z,00000200,01000000,0000.71,-000.03,0000.24,-000.02,0000.09,0000.15,-000.50,-000.18,-000.10,16.2,22.9,,00.0,0631.7,30.9
2021-02-03T05:24:00Z,00000200,01000000,0000.31,0000.05,0000.23,0000.27,-000.15,-000.00,0000.51,0000.80,0000.21,16.2,22.9,,00.0,0631.6,30.9
2021-02-03T05:25:00Z,00000200,01000000,0000.87,0000.11,0000.29,0000.58,0000.16,-000.42,0000.51,0000.16,0000.57,16.1,22.9,,00.0,0631.6,30.9
2021-02-03T05:26:00Z,00000200,01000000,0000.57,0000.03,0000.18,0000.23,-000.24,-000.15,0000.33,0000.68,0000.24,16.0,22.9,,00.0,0631.6,30.9
2021-02-03T05:27:00Z,00000200,01000000,-000.51,0000.25,-000.01,0000.46,-000.10,0000.00,0000.25,-000.14,-000.04,16.0,22.8,,00.0,0631.5,30.8
2021-02-03T05:28:00Z,00000200,01000000,-000.29,0000.08,0000.43,0000.43,0000.05,0000.36,0000.06,0000.12,-000.14,15.9,22.8,,00.0,0631.5,30.8
2021-02-03T05:29:00Z,00000200,01000000,0000.66,-000.34,0000.32,0000.15,-000.09,-000.03,0000.27,0000.53,0000.04,15.8,22.7,,00.0,0631.5,30.8
2021-02-03T05:30:00Z,00000200,01000000,0000.29,0000.08,0000.20,-000.20,0000.15,0000.06,0000.45,-000.55,0000.17,15.7,22.7,,00.0,0631.6,30.8
2021-02-03T05:31:00Z,00000200,01000000,0000.56,-000.02,0000.21,0000.31,0000.15,0000.06,-000.31,-000.03,0000.05,15.7,22.7,,00.0,0631.5,30.8
2021-02-03T05:32:00Z,00000200,01000000,0000.48,-000.11,-000.07,0000.48,0000.03,-000.02,0000.15,0000.30,0000.04,15.7,22.6,,00.0,0631.5,30.8
2021-02-03T05:33:00Z,00000200,01000000,-000.29,-000.24,0000.22,0000.43,0000.29,0000.09,0000.36,-000.02,0000.20,15.7,22.6,,00.0,0631.5,30.8
2021-02-03T05:34:00Z,00000200,01000000,-000.02,0000.32,-000.11,0000.03,0000.20,0000.15,-000.03,0000.31,0000.27,15.8,22.7,,00.0,0631.6,30.8
2021-02-03T05:35:00Z,00000200,01000000,0000.07,-000.19,-000.00,0000.33,-000.05,-000.04,-000.16,-000.11,0000.08,15.8,22.7,,00.0,0631.7,30.8
2021-02-03T05:36:00Z,00000200,01000000,0000.17,0000.29,0000.10,0000.34,0000.20,-000.24,0000.32,0000.15,-000.29,15.9,22.7,,00.0,0631.7,30.8
2021-02-03T05:37:00Z,00000200,01000000,-000.31,-000.09,0000.23,-000.04,0000.18,0000.09,-000.29,-000.20,-000.01,15.9,22.7,,00.0,0631.7,30.9
2021-02-03T05:38:00Z,00000200,01000000,-000.04,-000.14,-000.01,0000.53,0000.07,-000.19,-000.20,-000.41,-000.34,16.0,22.7,,00.0,0631.7,30.9
2021-02-03T05:39:00Z,00000200,01000000,0000.94,-000.38,-000.07,0000.47,-000.13,0000.11,-000.03,0000.37,0000.60,16.0,22.7,,00.0,0631.7,30.8
2021-02-03T05:40:00Z,00000200,01000000,0000.39,-000.10,0000.09,-000.17,-000.07,0000.04,0000.15,0000.05,-000.30,15.9,22.7,,00.0,0631.7,30.8
2021-02-03T05:41:00Z,00000200,01000000,0000.11,0000.06,0000.07,0000.49,0000.19,0000.18,-000.59,-000.35,-000.41,15.8,22.7,,00.0,0631.7,30.8
2021-02-03T05:42:00Z,00000200,01000000,-000.24,-000.48,0000.42,0000.78,0000.21,0000.07,-000.26,-000.47,-000.42,15.7,22.6,,00.0,0631.7,30.8
2021-02-03T05:43:00Z,00000200,01000000,0000.04,-000.06,0000.07,0000.04,0000.03,-000.15,0000.19,0000.14,0000.16,15.6,22.6,,00.0,0631.7,30.8
2021-02-03T05:44:00Z,00000200,01000000,0000.60,0000.06,0000.24,0000.30,-000.01,-000.13,-000.14,0000.03,0000.09,15.6,22.5,,00.0,0631.8,30.8
2021-02-03T05:45:00Z,00000200,01000000,-000.49,-000.04,0000.18,0000.22,0000.17,0000.07,-000.35,-000.61,-000.23,15.5,22.5,,00.0,0631.8,30.8
2021-02-03T05:46:00Z,00000200,01000000,0000.32,0000.16,0000.02,0000.74,0000.07,0000.18,-000.20,-000.13,-000.11,15.4,22.5,,00.0,0631.8,30.8
2021-02-03T05:47:00Z,00000200,01000000,-000.17,-000.02,0000.19,0000.35,0000.08,0000.04,0000.30,0000.14,-000.18,15.5,22.4,,00.0,0631.9,30.8
2021-02-03T05:48:00Z,00000200,01000000,0000.07,0000.11,-000.08,-000.16,-000.10,0000.09,-000.32,-000.26,0000.30,15.5,22.4,,00.0,0631.9,30.8
2021-02-03T05:49:00Z,00000200,01000000,0000.26,0000.01,0000.24,0000.43,-000.19,0000.01,-000.27,-000.11,-000.25,15.5,22.5,,00.0,0631.9,30.8
2021-02-03T05:50:00Z,00000200,01000000,0000.32,0000.12,0000.13,-000.05,0000.07,-000.07,-000.05,-000.12,0000.18,15.6,22.5,,00.0,0631.9,30.8
2021-02-03T05:51:00Z,00000200,01000000,0000.25,-000.07,0000.04,0000.09,0000.10,-000.04,-000.17,0000.30,0000.03,15.6,22.5,,00.0,0631.9,30.8
2021-02-03T05:52:00Z,00000200,01000000,-000.08,0000.31,0000.20,0000.17,0000.11,0000.14,-000.08,0000.08,-000.15,15.7,22.5,,00.0,0631.9,30.8
2021-02-03T05:53:00Z,00000200,01000000,-000.28,0000.04,0000.16,-000.02,-000.19,-000.05,0000.27,0000.06,0000.12,15.8,22.6,,00.0,0631.9,30.9
2021-02-03T05:54:00Z,00000200,01000000,-000.07,-000.30,0000.17,0000.76,-000.04,-000.18,-000.23,-000.16,-000.17,15.8,22.6,,00.0,0632.0,30.9
2021-02-03T05:55:00Z,00000200,01010000,0000.15,-000.12,0000.36,-000.08,0000.15,0000.05,-000.09,0000.00,0000.21,15.9,22.6,,00.0,0632.0,30.9
2021-02-03T05:56:00Z,00000200,01010000,-000.37,-000.00,0000.03,0000.01,0000.02,0000.00,0000.20,-000.29,-000.05,15.9,22.6,,00.0,0632.0,30.9
2021-02-03T05:57:00Z,00000200,41000000,,,,,,,0001.54,0001.74,0001.40,16.0,22.7,,00.0,0631.9,30.9
2021-02-03T05:58:00Z,00000200,61000000,,,,,,,-000.25,-000.13,-000.24,15.6,22.8,,00.0,0631.0,30.9
2021-02-03T05:59:00Z,00000200,21000000,,,,,,,-000.11,-000.32,-000.48,15.6,22.9,,00.0,0631.0,30.9
